Theta_e
299 293 289 292 293 293 291 290 289 291 294 293 292 292 294 297 296 296 296 297 298 298 301 302 305 308 314 320 323 325 329 332 332 329 330 330 329 331 331 332 331 330 330 329
295 290 295 297 295 292 290 290 289 290 294 292 290 291 294 296 295 296 297 297 298 299 300 303 302 301 305 309 317 322 324 328 332 331 331 330 330 330 331 332 331 331 330 329
291 294 297 295 291 290 289 289 288 289 291 291 286 287 290 294 296 297 298 296 296 296 298 300 300 301 301 301 302 308 316 322 327 331 330 329 329 329 328 329 330 330 329 329
293 294 294 293 291 292 287 292 291 291 287 282 287 279 287 291 292 294 295 295 293 295 299 297 297 299 302 304 304 304 303 306 313 325 328 327 326 325 327 328 330 329 329 328
290 290 291 291 292 294 290 292 291 290 286 285 284 282 285 290 289 292 294 295 297 297 298 299 300 303 304 305 305 304 302 302 304 313 323 326 325 325 325 327 327 328 327 327
291 294 293 293 293 294 293 291 291 288 286 278 283 283 282 287 290 291 293 296 297 296 297 299 301 303 303 304 306 308 301 301 303 309 314 321 323 322 320 321 324 325 325 325
289 289 292 294 290 292 291 287 279 278 277 277 283 282 285 289 290 293 292 296 297 298 298 299 299 300 301 302 303 306 310 306 305 308 312 315 318 319 322 321 320 321 323 322
284 282 289 292 291 288 288 287 281 274 276 278 281 279 285 290 292 293 294 297 298 298 298 298 299 299 300 301 302 304 306 310 311 311 311 313 314 315 317 318 318 319 319 320
284 284 291 291 291 292 287 284 288 281 275 278 280 284 289 290 290 291 292 296 296 296 297 297 298 298 298 298 300 301 302 303 307 313 312 310 311 312 312 315 315 314 314 312
288 281 289 289 291 290 289 290 282 282 271 271 278 280 282 287 289 290 292 295 295 295 296 296 296 297 297 298 298 299 300 300 301 302 302 302 304 305 306 305 303 304 305 305
288 288 284 288 286 286 286 285 286 286 284 277 275 279 285 289 291 290 292 295 294 295 295 295 296 296 296 296 295 295 296 297 297 297 298 297 298 298 298 298 298 298 299 300
290 288 281 284 288 289 288 287 287 281 279 280 281 281 291 290 293 294 295 295 296 296 296 295 295 295 294 294 294 293 294 294 295 296 295 295 295 294 294 294 294 294 295 296
290 286 279 282 285 288 286 288 289 288 285 279 277 280 290 290 293 295 294 295 296 296 295 295 294 294 293 293 292 292 293 293 294 294 293 292 292 292 291 292 292 292 292 292
294 289 285 281 284 286 283 286 287 287 281 281 282 284 287 290 292 293 294 294 295 295 295 294 293 293 292 292 291 291 291 292 292 292 291 290 290 291 291 291 290 290 290 290
291 283 285 287 288 288 286 286 287 285 287 283 285 286 288 290 292 294 294 294 295 294 294 293 292 291 291 290 290 290 290 291 291 290 290 289 289 290 289 288 288 288 287 288
292 281 284 281 287 287 282 287 287 287 288 287 286 285 290 293 294 293 295 295 294 293 293 293 292 291 290 290 289 290 289 289 289 288 287 287 287 286 285 285 285 285 285 285
289 284 281 277 283 283 279 284 287 287 289 288 284 289 291 290 293 293 294 295 294 293 293 292 290 290 289 289 290 288 288 289 287 285 284 284 284 284 284 284 284 284 284 284
286 285 285 279 280 274 284 288 291 289 289 291 290 289 291 291 293 294 295 295 294 293 292 291 290 289 289 289 288 288 287 286 284 284 283 283 283 282 283 283 283 283 283 282
291 286 282 280 279 282 283 284 286 286 286 291 290 291 292 292 291 289 294 296 295 293 291 290 290 289 288 288 288 286 285 284 284 283 283 282 281 280 281 278 281 281 279 279
288 289 286 282 279 275 282 286 291 291 283 290 292 291 291 290 286 289 293 293 292 290 290 289 289 288 287 285 285 284 284 283 282 282 282 282 280 276 276 279 278 279 277 281
282 283 282 281 280 279 283 286 290 279 281 281 289 292 290 288 291 290 291 289 289 289 288 288 288 285 283 284 284 284 282 281 281 280 280 280 279 276 276 276 276 274 275 277
279 279 279 282 276 273 285 285 283 286 285 286 289 291 289 289 289 288 288 287 287 286 287 285 283 282 282 283 283 281 280 280 278 276 276 273 271 274 276 270 271 272 272 277
280 284 282 282 280 286 286 286 288 288 286 285 286 288 289 287 286 286 285 285 285 284 284 283 282 280 279 278 279 278 277 276 272 267 266 267 268 270 271 269 269 270 271 280
281 283 283 282 281 283 285 286 288 288 287 288 287 288 288 286 285 284 284 284 283 282 282 279 279 278 275 274 274 273 273 272 264 263 265 267 267 267 267 271 272 269 270 272
282 283 280 278 280 282 284 285 287 287 285 284 286 287 287 285 283 284 283 282 282 281 279 279 278 277 274 273 270 267 268 264 265 264 267 267 268 265 269 271 271 272 273 275
280 281 281 278 284 285 286 287 287 286 285 284 284 284 284 284 284 283 282 281 280 278 276 275 274 273 270 268 266 261 259 260 260 264 266 266 266 265 269 269 271 277 279 281
Wind_Speed
8 6 12 11 10 8 5 9 6 6 2 5 7 5 9 8 8 8 7 7 8 9 9 9 9 8 7 6 7 9 10 13 11 8 7 6 7 6 4 5 6 6 4 7
6 12 10 10 11 4 5 10 6 5 6 3 4 9 8 8 8 8 9 9 8 7 7 7 7 5 5 4 5 6 8 9 9 9 8 7 5 4 5 4 5 7 6 6
8 7 9 7 4 6 4 5 6 5 5 2 2 7 8 9 10 7 8 4 1 3 5 6 6 7 3 2 3 3 5 6 7 8 7 4 2 2 3 4 4 7 8 7
6 3 9 9 8 7 4 6 9 11 7 3 5 5 4 7 8 5 5 5 4 3 6 6 5 7 7 5 5 5 5 4 4 5 10 10 7 7 4 6 5 6 9 9
5 6 7 5 7 8 4 8 7 4 3 2 3 1 7 6 4 7 8 7 8 7 6 8 7 7 7 4 3 2 3 4 5 4 5 8 7 6 4 4 7 8 7 8
3 2 2 2 6 4 9 9 6 2 3 1 7 7 6 5 6 5 7 8 8 7 7 8 6 8 6 4 5 3 2 2 3 2 3 3 8 6 5 5 5 3 3 5
4 3 2 1 9 3 4 7 3 2 1 6 7 5 10 3 2 8 10 9 8 7 7 8 7 7 6 6 6 6 6 5 4 5 5 4 2 2 4 2 2 2 2 3
8 5 9 5 4 8 7 6 7 8 5 4 5 7 8 2 8 9 10 10 8 8 7 8 7 7 6 7 7 8 8 8 8 9 8 7 8 5 5 6 4 3 3 3
8 2 3 4 2 6 6 6 1 8 3 5 6 6 1 6 5 6 8 9 8 7 7 7 8 7 7 7 7 7 7 8 7 7 7 8 7 7 6 7 5 4 4 3
2 7 3 0 1 2 3 7 4 2 5 4 5 4 6 7 9 9 9 9 9 7 7 6 7 7 6 6 7 8 8 8 8 8 8 7 8 8 8 8 8 7 6 7
1 5 1 4 6 8 3 3 3 5 5 6 3 8 3 5 10 11 9 9 9 8 7 7 7 7 7 7 7 8 8 8 8 7 8 8 7 8 8 8 7 7 7 7
3 6 4 3 2 3 3 4 5 5 5 1 4 7 2 5 8 12 10 9 9 8 8 7 7 7 7 7 7 7 7 7 7 7 8 9 9 8 8 8 7 7 7 7
9 2 4 4 3 3 4 5 5 4 3 6 7 8 2 1 6 8 10 9 9 9 9 7 7 7 7 6 7 7 6 7 7 8 9 9 8 8 7 7 7 7 6 6
5 4 7 11 8 9 7 8 7 6 3 5 8 4 5 7 8 8 9 8 8 7 8 7 7 7 6 6 7 7 7 6 6 8 8 8 7 6 6 6 6 6 6 6
6 9 5 4 3 3 6 15 15 12 22 11 19 13 9 11 11 13 9 10 11 10 8 8 7 7 7 7 7 7 7 6 5 8 8 7 5 5 5 6 6 6 6 6
1 2 4 3 5 5 2 6 17 21 22 14 12 8 7 12 8 10 12 12 12 10 9 9 9 8 7 7 7 7 6 6 6 7 7 6 6 6 5 5 5 6 6 6
7 6 4 3 5 5 4 18 15 14 20 21 17 17 5 6 8 11 12 12 13 12 11 12 10 9 7 7 7 7 6 6 6 6 5 5 5 6 6 5 6 6 6 5
8 6 3 4 3 4 9 2 14 21 11 20 16 4 7 9 9 7 8 12 12 13 13 12 10 9 8 7 7 7 6 6 6 6 5 5 5 5 6 6 5 5 3 4
0 6 5 5 8 6 5 6 8 11 14 11 15 6 6 4 5 2 0 8 11 13 13 11 10 10 8 8 7 8 7 6 6 5 5 5 4 4 4 4 5 5 3 4
5 6 6 6 7 13 1 4 6 7 12 7 15 12 10 8 5 6 7 9 11 13 13 14 12 10 9 6 7 8 7 6 6 5 4 4 2 2 3 3 4 3 3 6
8 5 11 6 4 7 3 5 3 9 7 3 2 6 8 6 3 6 10 8 13 13 14 12 11 9 7 6 7 8 7 6 4 4 3 3 3 3 4 4 3 3 5 5
6 7 4 4 3 8 5 4 9 5 2 5 3 3 7 8 9 11 10 11 13 15 12 10 11 8 6 6 7 7 7 5 5 3 2 2 3 3 2 3 4 4 4 6
2 4 7 7 6 2 7 3 4 2 4 1 4 3 8 10 6 11 11 11 10 11 10 7 11 10 5 5 5 7 4 4 3 2 1 2 3 4 3 3 4 3 3 5
2 1 3 4 3 3 5 3 3 2 3 3 3 5 7 8 11 10 10 10 10 8 8 5 10 8 6 4 5 5 5 4 3 1 1 2 1 3 3 2 2 2 3 3
4 7 5 3 2 1 4 4 2 5 4 2 3 6 8 11 9 10 10 10 10 8 5 7 8 8 8 6 6 4 4 3 2 1 2 3 3 4 4 3 3 3 4 6
5 6 5 4 5 5 3 4 6 7 6 7 6 5 5 8 11 8 10 8 10 10 6 6 6 7 6 6 6 4 3 4 4 3 3 3 2 2 3 4 7 9 15 16
Wind_Direction
209 189 204 209 222 254 176 198 175 125 118 144 219 243 245 204 193 207 241 236 192 209 214 201 187 194 198 188 182 177 170 178 174 181 184 191 197 192 194 194 189 193 206 180
164 213 197 223 208 227 262 189 199 56 104 102 225 240 251 243 235 199 207 225 222 194 177 123 126 145 168 204 211 199 192 180 182 178 180 202 192 192 195 184 188 194 198 203
173 176 228 155 156 173 224 184 147 133 127 269 340 278 233 228 225 216 210 189 54 82 118 137 156 155 143 193 271 254 240 215 193 176 158 139 122 134 176 198 193 197 191 195
224 202 166 160 178 169 168 86 110 124 137 206 177 269 234 194 196 187 205 200 219 118 71 61 52 78 63 23 357 348 338 304 265 191 159 171 189 209 189 196 197 188 191 199
174 149 159 178 181 187 161 113 123 129 135 92 214 91 257 106 203 190 184 141 95 85 93 95 78 75 71 35 336 301 295 296 296 270 167 175 194 196 213 180 193 192 193 197
73 302 149 139 46 132 146 105 89 118 127 281 204 164 265 175 198 104 121 114 125 133 112 98 101 94 70 46 25 356 156 249 291 301 263 199 169 187 189 223 198 173 177 195
126 117 83 152 85 14 144 139 117 155 172 215 334 179 242 155 93 151 142 130 126 147 120 101 93 83 62 42 55 25 53 55 42 34 26 6 27 349 215 211 58 105 182 183
159 208 172 193 152 171 203 182 155 172 178 191 344 233 250 88 114 94 112 121 122 108 104 99 93 89 69 49 48 55 46 57 48 50 46 46 49 60 51 67 48 51 56 48
170 108 59 53 44 141 196 213 113 105 17 76 206 265 240 141 136 131 136 135 134 116 111 107 88 81 85 68 55 62 59 50 57 72 60 46 38 43 43 41 44 36 38 35
177 110 336 263 190 93 167 152 77 350 127 221 245 242 230 195 195 175 166 154 135 127 121 106 96 92 73 75 66 60 60 61 56 57 58 53 51 51 55 54 45 34 27 31
91 99 260 141 210 161 151 189 201 142 155 163 169 254 246 202 171 168 169 150 150 147 140 127 113 102 91 76 70 64 52 59 58 56 59 55 47 45 48 50 41 31 31 24
132 102 145 174 123 53 347 193 163 141 230 206 149 266 12 2 140 148 152 139 136 134 134 128 126 113 97 89 76 75 65 56 60 68 65 60 57 51 53 48 41 33 34 25
171 170 95 26 19 48 223 190 228 111 79 199 136 257 330 306 122 136 142 141 140 142 133 131 126 114 107 98 85 73 62 64 55 66 67 57 51 51 48 41 36 34 32 27
112 144 180 195 209 132 187 191 204 179 134 180 220 161 214 192 170 152 148 143 145 146 142 142 124 115 106 96 96 85 66 62 63 69 68 62 48 47 41 36 33 31 26 25
162 188 162 73 74 106 175 188 190 204 223 189 231 219 197 193 186 182 155 150 157 154 155 146 131 126 120 107 95 86 75 68 82 78 71 64 57 47 38 34 26 24 27 21
165 181 112 37 83 83 62 202 194 208 225 235 250 253 181 188 160 154 169 165 169 162 157 144 133 129 120 111 105 99 97 79 74 70 68 58 54 51 42 32 26 29 18 6
146 131 116 224 110 84 326 216 197 213 224 216 230 224 161 135 159 172 177 175 172 166 155 144 140 133 125 121 121 117 110 98 86 88 78 66 55 43 28 18 17 13 357 338
140 107 74 117 101 180 250 147 194 206 212 222 237 127 168 180 183 176 166 164 164 156 148 147 139 128 127 123 118 114 112 108 98 86 75 55 45 31 15 13 1 338 309 316
26 126 114 156 209 296 231 203 164 169 242 221 226 170 151 107 84 246 264 161 160 150 143 139 136 134 130 130 131 125 117 109 98 82 68 49 44 20 359 340 333 315 314 310
72 61 146 166 190 205 229 176 132 93 269 218 203 193 167 138 180 219 155 121 121 131 134 133 134 127 124 134 132 121 117 104 88 71 53 35 34 355 315 302 312 276 284 297
140 138 192 176 204 279 178 147 133 124 238 221 146 153 140 188 202 132 119 108 124 132 131 128 126 128 130 134 127 116 112 98 91 63 28 14 355 319 286 287 285 293 307 310
149 140 165 140 170 265 162 71 160 207 88 155 142 131 135 124 121 129 125 128 132 133 131 124 120 120 116 118 120 116 105 103 79 38 354 316 285 284 297 320 310 328 324 322
174 179 163 173 206 215 187 120 137 100 129 136 110 97 117 126 134 138 136 136 135 131 132 128 131 125 101 83 106 125 122 103 83 60 339 280 297 297 292 321 308 326 309 320
319 307 139 79 312 196 201 99 102 94 83 101 106 133 137 142 146 144 143 139 138 137 139 133 132 129 119 106 91 113 116 98 98 127 263 275 338 331 336 319 285 285 284 276
178 144 163 281 152 219 262 256 143 142 124 142 156 165 164 146 155 150 147 147 149 146 131 140 144 145 148 144 127 99 94 99 116 77 355 358 28 353 326 307 291 284 248 257
187 173 172 211 184 146 129 207 168 165 185 185 161 147 136 149 158 148 158 158 151 150 145 143 145 136 142 130 123 116 103 100 80 41 26 7 338 327 315 307 309 297 299 300